This demonstration page uses our WeatherBlox Daily Observations layout. Learn more.

Left ArrowRight Arrow

34.74481, -87.66753

Hourly Observations for June 28, 2017

Temp ( °F °C ) Dew Point ( °F °C ) Humidity (%) Winds ( mph kmh ) Pressure ( in mb ) Visibility ( mi km ) Precip ( " mm )
12:53 am 00:53 Clear 64 17.8 61 16.1 90 90 Calm 30.08 1019 10 16 0.00 0.00
1:53 am 01:53 Clear 63 17.2 59 15 87 87 Calm 30.08 1019 10 16 0.00 0.00
2:53 am 02:53 Clear 63 17.2 60 15.6 90 90 Calm 30.07 1018 10 16 0.00 0.00
3:53 am 03:53 Clear 62 16.7 59 15 90 90 Calm 30.07 1018 10 16 0.00 0.00
4:53 am 04:53 Clear 61 16.1 58 14.4 90 90 Calm 30.09 1019 10 16 0.00 0.00
5:53 am 05:53 Sunny 60 15.6 58 14.4 93 93 SE 3 6 30.07 1018 10 16 0.00 0.00
6:53 am 06:53 Sunny 66 18.9 61 16.1 84 84 Calm 30.10 1019 10 16 0.00 0.00
7:53 am 07:53 Sunny 70 21.1 61 16.1 73 73 E 3 6 30.13 1020 10 16 0.00 0.00
8:53 am 08:53 Sunny 75 23.9 59 15 58 58 SE 8 13 30.12 1020 10 16 0.00 0.00
9:53 am 09:53 Sunny 80 26.7 58 14.4 47 47 SE 7 11 30.12 1020 10 16 0.00 0.00
10:53 am 10:53 Sunny 83 28.3 58 14.4 43 43 SE 9 15 30.11 1020 10 16 0.00 0.00
11:53 am 11:53 Sunny 84 28.9 59 15 43 43 ESE 6 9 30.11 1020 10 16 0.00 0.00
12:53 pm 12:53 Partly Cloudy 86 30 61 16.1 43 43 SSE 8 13 30.09 1019 10 16 0.00 0.00
1:53 pm 13:53 Mostly Sunny 86 30 60 15.6 42 42 VRB 5 7 30.07 1018 10 16 0.00 0.00
2:53 pm 14:53 Mostly Sunny 87 30.6 61 16.1 42 42 SE 7 11 30.05 1018 10 16 0.00 0.00
3:53 pm 15:53 Sunny 88 31.1 60 15.6 39 39 SSE 7 11 30.03 1017 10 16 0.00 0.00
4:53 pm 16:53 Sunny 88 31.1 61 16.1 40 40 S 7 11 30.02 1017 10 16 0.00 0.00
5:53 pm 17:53 Partly Cloudy 87 30.6 61 16.1 42 42 SSE 10 17 30.01 1016 10 16 0.00 0.00
6:53 pm 18:53 Sunny 85 29.4 60 15.6 43 43 S 9 15 30.02 1017 10 16 0.00 0.00
7:53 pm 19:53 Sunny 80 26.7 63 17.2 56 56 SSE 5 7 30.02 1017 10 16 0.00 0.00
8:53 pm 20:53 Clear 75 23.9 63 17.2 66 66 SE 3 6 30.02 1017 10 16 0.00 0.00
9:53 pm 21:53 Clear 73 22.8 63 17.2 71 71 SE 3 6 30.02 1017 10 16 0.00 0.00
10:53 pm 22:53 Clear 72 22.2 63 17.2 73 73 SE 5 7 30.02 1017 10 16 0.00 0.00
11:53 pm 23:53 Clear 72 22.2 63 17.2 73 73 SSE 6 9 30.04 1017 10 16 0.00 0.00

Powered by AerisWeather